GW3986 Weather Reports


time (UTC)temp
C
wind
direction
speed
KPH
gust
KPH
rain 1hr
cm
rain 24hr
cm
rain mn
cm
humidity
%
barometer
mb
20260906214503 28 185 6.4 27.4 0.00 0.00 0.00 35 1023.3
20260906213004 28 209 14.5 27.4 0.00 0.00 0.00 35 1023.5
20260906211502 28 160 11.3 32.2 0.00 0.00 0.00 35 1023.7
20260906210004 28 132 6.4 19.3 0.00 0.00 0.00 35 1023.7
20260906204507 28 184 11.3 27.4 0.00 0.00 0.00 33 1023.9
20260906203017 28 128 8.0 22.5 0.00 0.00 0.00 34 1024.0
20260906201511 28 147 8.0 14.5 0.00 0.00 0.00 35 1024.1
20260906200007 28 179 8.0 24.1 0.00 0.00 0.00 32 1024.3
20260906194508 28 130 9.7 22.5 0.00 0.00 0.00 33 1024.4
20260906193007 27 153 11.3 25.7 0.00 0.00 0.00 32 1024.7
20260906191505 28 92 3.2 27.4 0.00 0.00 0.00 33 1024.7
20260906190008 28 139 8.0 19.3 0.00 0.00 0.00 32 1025.0
20260906184509 27 203 6.4 25.7 0.00 0.00 0.00 32 1025.1
20260906183011 27 173 9.7 25.7 0.00 0.00 0.00 35 1025.4
20260906181528 27 170 6.4 20.9 0.00 0.00 0.00 36 1025.8
20260906180024 27 169 4.8 16.1 0.00 0.00 0.00 33 1026.0
20260906174513 27 153 6.4 16.1 0.00 0.00 0.00 36 1026.2
20260906173012 26 159 4.8 16.1 0.00 0.00 0.00 35 1026.3
20260906171514 26 201 8.0 11.3 0.00 0.00 0.00 34 1026.5
20260906170007 26 236 3.2 11.3 0.00 0.00 0.00 36 1026.6
20260906164516 26 126 3.2 16.1 0.00 0.00 0.00 34 1026.7
20260906163014 25 74 3.2 12.9 0.00 0.00 0.00 37 1026.7
20260906161534 25 306 1.6 9.7 0.00 0.00 0.00 39 1026.8
20260906160015 23 65 1.6 9.7 0.00 0.00 0.00 43 1026.8
20260906154514 23 107 3.2 12.9 0.00 0.00 0.00 40 1026.7
20260906153018 23 111 1.6 8.0 0.00 0.00 0.00 42 1026.6
20260906151521 22 360 1.6 6.4 0.00 0.00 0.00 43 1026.5
20260906150018 21 32 1.6 6.4 0.00 0.00 0.00 47 1026.4
20260906144522 20 348 1.6 4.8 0.00 0.00 0.00 49 1026.5
20260906143018 18 339 3.2 8.0 0.00 0.00 0.00 56 1026.3
20260906141503 16 69 3.2 6.4 0.00 0.00 0.00 62 1026.3
20260906140005 14 17 0.0 6.4 0.00 0.00 0.00 68 1026.3
20260906134510 13 38 0.0 4.8 0.00 0.00 0.00 71 1026.1
20260906133016 13 22 0.0 4.8 0.00 0.00 0.00 69 1025.9
20260906131523 13 30 0.0 3.2 0.00 0.00 0.00 66 1025.7
20260906130007 14 28 0.0 3.2 0.00 0.00 0.00 64 1025.8
20260906124505 14 360 1.6 6.4 0.00 0.00 0.00 61 1025.8
20260906123019 15 43 0.0 4.8 0.00 0.00 0.00 61 1025.6
20260906121532 15 318 1.6 6.4 0.00 0.00 0.00 60 1025.6
20260906120023 14 318 3.2 8.0 0.00 0.00 0.00 62 1025.6
20260906114507 14 304 1.6 8.0 0.00 0.00 0.00 63 1025.5
20260906113011 13 321 0.0 4.8 0.00 0.00 0.00 65 1025.5
20260906111518 13 352 1.6 4.8 0.00 0.00 0.00 65 1025.3
20260906110023 13 37 0.0 0.0 0.00 0.00 0.00 64 1025.2
20260906104533 14 37 0.0 3.2 0.00 0.00 0.00 63 1025.2
20260906103014 14 21 0.0 3.2 0.00 0.00 0.00 64 1025.4
20260906101514 14 21 0.0 3.2 0.00 0.00 0.00 64 1025.5
20260906100031 14 21 0.0 1.6 0.00 0.00 0.00 63 1025.6
20260906094527 14 21 0.0 1.6 0.00 0.00 0.00 64 1025.6
20260906093029 15 20 0.0 4.8 0.00 0.00 0.00 64 1025.6
20260906091512 15 325 0.0 0.0 0.00 0.00 0.00 65 1025.4
20260906090025 15 325 0.0 3.2 0.00 0.00 0.00 65 1025.3
20260906084528 15 325 0.0 0.0 0.00 0.00 0.00 68 1025.4
20260906083030 16 325 0.0 0.0 0.00 0.00 0.00 70 1025.7
20260906081518 16 325 0.0 0.0 0.00 0.00 0.00 70 1025.7
20260906080019 16 325 0.0 3.2 0.00 0.00 0.00 69 1025.6
20260906074504 15 325 0.0 3.2 0.00 0.00 0.00 69 1025.7
20260906073006 15 55 0.0 3.2 0.00 0.00 0.00 72 1025.9
20260906071517 16 55 0.0 0.0 0.00 0.00 0.00 72 1026.0
20260906070013 16 55 0.0 0.0 0.00 0.00 0.00 71 1025.8
20260906064505 16 55 0.0 3.2 0.00 0.00 0.00 71 1026.1
20260906063004 16 43 0.0 3.2 0.00 0.00 0.00 72 1026.0
20260906061508 16 332 0.0 3.2 0.00 0.00 0.00 72 1025.8
20260906060020 16 360 0.0 6.4 0.00 0.00 0.00 72 1025.7
20260906054516 16 292 3.2 6.4 0.00 0.00 0.00 73 1025.8
20260906053004 17 264 0.0 1.6 0.00 0.00 0.00 72 1025.6
20260906051511 17 257 0.0 3.2 0.00 0.00 0.00 70 1025.7
20260906050009 17 257 0.0 3.2 0.00 0.00 0.00 69 1025.7
20260906044518 18 198 0.0 4.8 0.00 0.00 0.00 68 1025.9
20260906043028 18 142 0.0 3.2 0.00 0.00 0.00 68 1026.0
20260906041503 18 163 1.6 6.4 0.00 0.00 0.00 1026.0
20260906040007 18 167 1.6 6.4 0.00 0.00 0.00 65 1026.1
20260906034517 18 140 1.6 9.7 0.00 0.00 0.00 1026.1
20260906033018 19 190 0.0 3.2 0.00 0.00 0.00 64 1026.0
20260906031532 20 182 1.6 9.7 0.00 0.00 0.00 62 1026.1
20260906030004 20 161 3.2 9.7 0.00 0.00 0.00 60 1025.8
20260906024510 19 102 1.6 9.7 0.00 0.00 0.00 54 1025.6
20260906023017 18 90 4.8 14.5 0.00 0.00 0.00 43 1025.4
20260906021531 19 352 0.0 0.0 0.00 0.00 0.00 43 1025.0
20260906020031 20 352 0.0 3.2 0.00 0.00 0.00 42 1024.7
20260906014508 21 352 0.0 0.0 0.00 0.00 0.00 39 1024.5
20260906013014 22 352 0.0 0.0 0.00 0.00 0.00 38 1024.4
20260906011524 23 352 0.0 0.0 0.00 0.00 0.00 37 1024.6
20260906010030 23 352 0.0 3.2 0.00 0.00 0.00 35 1024.6
20260906004533 24 319 1.6 4.8 0.00 0.00 0.00 33 1024.9
20260906003012 23 265 1.6 6.4 0.00 0.00 0.00 32 1025.1
20260906001535 23 238 3.2 8.0 0.00 0.00 0.00 32 1025.1
20260906000028 23 221 1.6 6.4 0.00 0.00 0.00 36 1024.9
20260905234529 23 228 0.0 3.2 0.00 0.00 0.00 36 1024.9
20260905233015 23 244 1.6 6.4 0.00 0.00 0.00 33 1024.8
20260905231522 25 223 4.8 9.7 0.00 0.00 0.00 31 1024.7
20260905230023 25 275 0.0 9.7 0.00 0.00 0.00 32 1024.5
20260905224527 25 175 4.8 9.7 0.00 0.00 0.00 34 1024.7
20260905223046 25 184 1.6 9.7 0.00 0.00 0.00 33 1024.9
20260905221521 25 199 3.2 12.9 0.00 0.00 0.00 32 1025.2
20260905220003 26 173 3.2 14.5 0.00 0.00 0.00 29 1025.1